STARLINK-34776 (65037 NORAD) Tracking and Keplerian Element Data

This shows tracking and keplerian element data for the satellite.

Feedback or suggestion? Click here.




ElementValue
Catalog65037
NameSTARLINK-34776
Epoch Orbit2205
Epoch Day354.17538313
Epoch Year2025
RAAN303.6972
Inclination53.1612
Eccentricity0.0001386
Argument of Perigee72.2456
Mean Anonmoly287.8696
Mean Motion15.30197459
Decay Rate0.00016268
L11 65037U 25161Y 25354.17538313 .00016268 00000+0 56021-3 0 9995
L22 65037 53.1612 303.6972 0001386 72.2456 287.8696 15.30197459 22054



Live tracking and technical data element details for STARLINK-34776 (NORAD 65037). STARLINK-34776 can be tracked NOW for your location showing map with azimuth and elevation plus other details from your city location.







IsCatalogInMostPopularTable: catalog: 65037, numindb: 4
Update: records affected: 1



GetName: 65037 STARLINK-34776

Hit Count: updated at: Tue, 10 Feb 2026 02:28:59 GMT